Location: *
(34.8620°S, 39.3380°E)
Time: 07:58:37
(UTC+00:00)

Cosmos 389 Rocket - Pass Details

Date: 27 July 2021
Orbit: 438 x 472 km, 81.1° (Epoch: 22 September)

Event Time Altitude Azimuth Distance (km) Brightness Sun altitude
Exits shadow 03:09:05 29° 270° (W) 844 3.2 -14.8°
Maximum altitude 03:09:10 29° 273° (W) 842 3.2 -14.8°
Drops below altitude 10° 03:12:10 10° 335° (NNW) 1,561 5.0 -14.2°
Sets 03:14:22 0° 346° (NNW) 2,424 6.1 -13.8°
